sat.trackr.live / text

‹ back to catalog

STARLINK-36492

NORAD 67332 · 2026-002AD

PAYLOAD ACTIVE UNKNOWN

§ Identity

Operator
Country
US
Launch date
2026-01-04
Launch site
AFETR
Launch vehicle
Mass (kg)
RCS (m²)

Purposes: comms

External: N2YO · Heavens-Above · Gunter

§ Orbital elements

Epoch: 2026-05-24T23:44:26.295072Z

Period
94.27 min
Inclination
42.9988°
Eccentricity
0.0001209
Mean motion
15.27586708 rev/d
Perigee alt
482.2 km
Apogee alt
483.9 km
Semi-major
6,861.2 km
B*
3.6467e-4
RAAN
254.7363°
Arg perigee
278.6307°
Mean anomaly
81.4407°
Rev number
2,290

§ Raw data

STARLINK-364921 67332U 26002AD  26144.98919323  .00009788  00000+0  36467-3 0  99922 67332  42.9988 254.7363 0001209 278.6307  81.4407 15.27586708 22904

JSON: /api/v1/satellites/67332 · /tle

For live sub-satellite position, see the globe view (requires WebGL).

§ Visibility from observer

Set your observer location to see the next 7 days of passes ≥ 10°. The values pass through the URL so the page stays shareable.

No JS? Fill the form by hand. The geolocation button needs JavaScript.